Location: Poughquag
(41.6090°N, 73.6820°W)
Time: 03:11:28
(UTC-04:00)

Explorer 11/Cluster Stage 4 - Pass Details

Date: 04 June 2020
Orbit: 467 x 1259 km, 28.8° (Epoch: 06 July)

Event Time Altitude Azimuth Distance (km) Brightness Sun altitude
Rises 06:12:52 0° 236° (WSW) 3,195 9.0 7.7°
Reaches altitude 10° 06:15:34 10° 223° (SW) 2,405 8.6 8.1°
Maximum altitude 06:20:10 24° 170° (S) 1,809 8.4 8.9°
Drops below altitude 10° 06:25:33 10° 120° (ESE) 2,860 10.1 9.9°
Sets 06:29:04 0° 108° (ESE) 3,945 11.1 10.5°
